Radioactive Concentration measured by Seawater Radiation Monitor near Fukushima Daiichi Nuclear Power Station
Date,Time,Cs137(Bq/L),Cs134(Bq/L),Total β(Bq/L)
2018/11/24,00:00,0.55,ND,9.0
2018/11/24,00:10,0.53,ND,9.6
2018/11/24,00:20,0.49,ND,9.5
2018/11/24,00:30,0.48,ND,ND
2018/11/24,00:40,0.53,ND,ND
2018/11/24,00:50,0.52,ND,ND
2018/11/24,01:00,0.47,ND,ND
2018/11/24,01:10,0.49,ND,ND
2018/11/24,01:20,0.46,ND,ND
2018/11/24,01:30,0.45,ND,ND
2018/11/24,01:40,0.44,ND,ND
2018/11/24,01:50,0.41,ND,ND
2018/11/24,02:00,0.40,ND,ND
2018/11/24,02:10,0.39,ND,ND
2018/11/24,02:20,0.39,ND,ND
2018/11/24,02:30,0.38,ND,ND
2018/11/24,02:40,0.37,ND,ND
2018/11/24,02:50,0.41,ND,ND
2018/11/24,03:00,0.38,ND,ND
2018/11/24,03:10,0.34,ND,ND
2018/11/24,03:20,0.33,ND,ND
2018/11/24,03:30,0.32,ND,ND
2018/11/24,03:40,0.30,ND,ND
2018/11/24,03:50,0.24,ND,ND
2018/11/24,04:00,0.23,ND,ND
2018/11/24,04:10,0.20,ND,ND
2018/11/24,04:20,0.19,ND,ND
2018/11/24,04:30,0.16,ND,ND
2018/11/24,04:40,0.16,ND,ND
2018/11/24,04:50,0.15,ND,ND
2018/11/24,05:00,0.15,ND,ND
2018/11/24,05:10,0.14,ND,ND
2018/11/24,05:20,0.14,ND,ND
2018/11/24,05:30,0.14,ND,ND
2018/11/24,05:40,0.14,ND,ND
2018/11/24,05:50,0.19,ND,ND
2018/11/24,06:00,0.20,ND,ND
2018/11/24,06:10,0.21,ND,11
2018/11/24,06:20,0.21,ND,11
2018/11/24,06:30,0.23,ND,12
2018/11/24,06:40,0.21,ND,ND
2018/11/24,06:50,0.17,ND,ND
2018/11/24,07:00,0.15,ND,ND
2018/11/24,07:10,0.16,ND,ND
2018/11/24,07:20,0.15,ND,ND
2018/11/24,07:30,0.16,ND,ND
2018/11/24,07:40,0.16,ND,ND
2018/11/24,07:50,0.18,ND,ND
2018/11/24,08:00,0.18,ND,ND
2018/11/24,08:10,0.16,ND,ND
2018/11/24,08:20,0.18,ND,ND
2018/11/24,08:30,0.17,ND,ND
2018/11/24,08:40,0.17,ND,ND
2018/11/24,08:50,0.15,ND,ND
2018/11/24,09:00,0.18,ND,ND
2018/11/24,09:10,0.25,ND,ND
2018/11/24,09:20,0.24,ND,ND
2018/11/24,09:30,0.26,ND,ND
2018/11/24,09:40,0.29,ND,ND
2018/11/24,09:50,0.30,ND,ND
2018/11/24,10:00,0.25,ND,ND
2018/11/24,10:10,0.24,ND,ND
2018/11/24,10:20,0.23,ND,ND
2018/11/24,10:30,0.27,ND,ND
2018/11/24,10:40,0.23,ND,ND
2018/11/24,10:50,0.26,ND,ND
2018/11/24,11:00,0.21,ND,ND
2018/11/24,11:10,0.22,ND,ND
2018/11/24,11:20,0.23,ND,ND
2018/11/24,11:30,0.24,ND,ND
2018/11/24,11:40,0.22,ND,ND
2018/11/24,11:50,0.22,ND,ND
2018/11/24,12:00,0.22,ND,ND
2018/11/24,12:10,0.26,ND,ND
2018/11/24,12:20,0.25,ND,ND
2018/11/24,12:30,0.25,ND,ND
2018/11/24,12:40,0.26,ND,ND
2018/11/24,12:50,0.22,ND,ND
2018/11/24,13:00,0.23,ND,ND
2018/11/24,13:10,0.22,ND,ND
2018/11/24,13:20,0.24,ND,ND
2018/11/24,13:30,0.27,ND,ND
2018/11/24,13:40,0.26,ND,ND
2018/11/24,13:50,0.21,ND,ND
2018/11/24,14:00,0.25,ND,ND
2018/11/24,14:10,0.26,ND,ND
2018/11/24,14:20,0.25,ND,ND
2018/11/24,14:30,0.24,ND,ND
2018/11/24,14:40,0.24,ND,ND
2018/11/24,14:50,0.24,ND,ND
2018/11/24,15:00,0.24,ND,ND
2018/11/24,15:10,0.18,ND,ND
2018/11/24,15:20,0.18,ND,ND
2018/11/24,15:30,0.19,ND,ND
2018/11/24,15:40,0.20,ND,ND
2018/11/24,15:50,0.19,ND,ND
2018/11/24,16:00,0.18,ND,ND
2018/11/24,16:10,0.16,ND,ND
2018/11/24,16:20,0.16,ND,ND
2018/11/24,16:30,0.17,ND,ND
2018/11/24,16:40,0.16,ND,ND
2018/11/24,16:50,0.18,ND,ND
2018/11/24,17:00,0.18,ND,ND
2018/11/24,17:10,0.18,ND,ND
2018/11/24,17:20,0.18,ND,ND
2018/11/24,17:30,0.18,ND,ND
2018/11/24,17:40,0.18,ND,ND
2018/11/24,17:50,0.19,ND,ND
2018/11/24,18:00,0.20,ND,ND
2018/11/24,18:10,0.22,ND,ND
2018/11/24,18:20,0.24,ND,ND
2018/11/24,18:30,0.24,ND,ND
2018/11/24,18:40,0.26,ND,ND
2018/11/24,18:50,0.27,ND,ND
2018/11/24,19:00,0.31,ND,ND
2018/11/24,19:10,0.34,ND,ND
2018/11/24,19:20,0.37,ND,ND
2018/11/24,19:30,0.42,ND,ND
2018/11/24,19:40,0.48,ND,ND
2018/11/24,19:50,0.52,ND,ND
2018/11/24,20:00,0.54,ND,ND
2018/11/24,20:10,0.59,ND,ND
2018/11/24,20:20,0.62,ND,ND
2018/11/24,20:30,0.64,ND,ND
2018/11/24,20:40,0.64,ND,ND
2018/11/24,20:50,0.68,ND,ND
2018/11/24,21:00,0.69,ND,ND
2018/11/24,21:10,0.62,ND,ND
2018/11/24,21:20,0.61,ND,ND
2018/11/24,21:30,0.61,ND,ND
2018/11/24,21:40,0.58,ND,ND
2018/11/24,21:50,0.58,ND,ND
2018/11/24,22:00,0.58,ND,ND
2018/11/24,22:10,0.57,ND,ND
2018/11/24,22:20,0.61,ND,ND
2018/11/24,22:30,0.59,ND,ND
2018/11/24,22:40,0.58,ND,ND
2018/11/24,22:50,0.57,ND,ND
2018/11/24,23:00,0.55,ND,ND
2018/11/24,23:10,0.52,ND,ND
2018/11/24,23:20,0.51,ND,ND
2018/11/24,23:30,0.46,ND,ND
2018/11/24,23:40,0.46,ND,ND
2018/11/24,23:50,0.44,ND,ND
